Weather History for KDFW - October, 2010

Change the Weather History Date:

Sunday, October 10, 2010

  Actual Average Record
Temperature  
Mean Temperature 73 °F 69 °F  
Max Temperature 86 °F 80 °F 95 °F (1975)
Min Temperature 59 °F 59 °F 39 °F (2000)
Degree Days  
Heating Degree Days 0 1  
Month to date heating degree days 6 10  
Since 1 July heating degree days 7 16  
Cooling Degree Days 8 6  
Month to date cooling degree days 37 68  
Year to date cooling degree days 3058 2645  
Growing Degree Days 22 (Base 50)    
Moisture  
Dew Point 52 °F    
Average Humidity 52    
Maximum Humidity 72    
Minimum Humidity 32    
Precipitation  
Precipitation 0.00 in 0.12 in 1.64 in (1919)
Month to date precipitation 0.00 1.09  
Year to date precipitation 26.99 27.75  
Snow  
Snow 0.00 in 0.00 in 0.00 in ()
Month to date snowfall 0.0 0.0  
Since 1 July snowfall 0.0 0.0  
Since 1 September snowfall 0.0 0.0  
Snow Depth 0.00 in    
Sea Level Pressure  
Sea Level Pressure 29.91 in    
Wind  
Wind Speed 10 mph (South)    
Max Wind Speed 21 mph    
Max Gust Speed 28 mph    
Visibility 10 miles    
Events      
T = Trace of Precipitation, MM = Missing Value Source: NWS Daily Summary

Daily Weather History Graph

Daily Weather History Graph

Search for Another Location

Airport or City:

Trip Planner

Search our weather history database for the weather conditions in past years. The results will help you decide how hot, cold, wet, or windy it might be!

Date:

Astronomy

Oct. 10, 2010 Rise Set
Actual Time 7:28 AM CDT 7:01 PM CDT
Civil Twilight 7:03 AM CDT 7:25 PM CDT
Nautical Twilight 6:35 AM CDT 7:54 PM CDT
Astronomical Twilight 6:06 AM CDT 8:22 PM CDT
Moon 10:45 AM CDT (10/10) 9:01 PM CDT (10/10)
Length of Visible Light 12h 21m
Length of Day
11h 32m
Waxing Crescent, 12% of the Moon is Illuminated
Oct 10
Waxing Crescent
Oct 14
First Quarter
Oct 22
Full
Oct 30
Last Quarter
Nov 5
New

Hourly Weather History & Observations

Time (CDT) Temp. Heat Index Dew Point Humidity Pressure Visibility Wind Dir Wind Speed Gust Speed Precip Events Conditions
12:53 AM 66.9 °F - 43.0 °F 42% 29.98 in 10.0 mi South 6.9 mph - N/A   Clear
1:53 AM 66.0 °F - 43.0 °F 43% 29.98 in 10.0 mi SSW 5.8 mph - N/A   Clear
2:53 AM 64.0 °F - 43.0 °F 46% 29.98 in 10.0 mi SSW 6.9 mph - N/A   Clear
3:53 AM 63.0 °F - 44.1 °F 50% 29.97 in 10.0 mi South 6.9 mph - N/A   Clear
4:53 AM 62.1 °F - 45.0 °F 53% 29.97 in 10.0 mi SSW 4.6 mph - N/A   Clear
5:53 AM 61.0 °F - 46.9 °F 60% 29.97 in 10.0 mi South 8.1 mph - N/A   Clear
6:53 AM 61.0 °F - 51.1 °F 70% 29.98 in 10.0 mi South 6.9 mph - N/A   Clear
7:53 AM 64.0 °F - 54.0 °F 70% 29.98 in 10.0 mi SSW 8.1 mph - N/A   Clear
8:53 AM 66.9 °F - 55.9 °F 68% 29.99 in 10.0 mi SSW 9.2 mph - N/A   Clear
9:53 AM 73.0 °F - 59.0 °F 61% 29.99 in 10.0 mi SSW 12.7 mph - N/A   Clear
10:53 AM 77.0 °F - 60.1 °F 56% 29.98 in 10.0 mi SSW 12.7 mph - N/A   Partly Cloudy
11:53 AM 80.6 °F 81.1 °F 59.0 °F 48% 29.98 in 10.0 mi South 15.0 mph - N/A   Scattered Clouds
12:53 PM 82.0 °F 81.6 °F 55.9 °F 41% 29.94 in 10.0 mi South 13.8 mph 20.7 mph N/A   Scattered Clouds
1:53 PM 82.9 °F 82.0 °F 55.0 °F 38% 29.91 in 10.0 mi South 15.0 mph 20.7 mph N/A   Scattered Clouds
2:53 PM 84.0 °F - 52.0 °F 33% 29.87 in 10.0 mi South 17.3 mph - N/A   Scattered Clouds
3:53 PM 84.0 °F - 52.0 °F 33% 29.84 in 10.0 mi South 16.1 mph 24.2 mph N/A   Partly Cloudy
4:53 PM 84.0 °F - 52.0 °F 33% 29.83 in 10.0 mi South 16.1 mph - N/A   Scattered Clouds
5:53 PM 82.9 °F - 51.1 °F 33% 29.82 in 10.0 mi South 15.0 mph - N/A   Scattered Clouds
6:53 PM 80.1 °F 79.9 °F 53.1 °F 39% 29.83 in 10.0 mi South 8.1 mph - N/A   Scattered Clouds
7:53 PM 73.9 °F - 54.0 °F 50% 29.83 in 10.0 mi SSE 6.9 mph - N/A   Scattered Clouds
8:53 PM 73.0 °F - 54.0 °F 51% 29.83 in 10.0 mi South 6.9 mph - N/A   Mostly Cloudy
9:53 PM 73.9 °F - 54.0 °F 50% 29.83 in 10.0 mi SSE 9.2 mph - N/A   Mostly Cloudy
10:53 PM 72.0 °F - 54.0 °F 53% 29.83 in 10.0 mi SSE 9.2 mph - N/A   Mostly Cloudy
11:53 PM 72.0 °F - 54.0 °F 53% 29.82 in 10.0 mi SSE 9.2 mph - N/A   Mostly Cloudy